"Pseudo-MPEC" for ZTs0004

Created 2022 Dec 16 5:22:19 UT using Find_Orb

Click here for an explanation of pseudo-MPECs

 
 Astrometry: 
     ZTs0004* C2022 11 30.19383 03 13 53.80 +07 16 08.7    ~C8F7 17.11R NEOCPI41
     ZTs0004  C2022 11 30.19417 03 13 57.20 +07 16 21.5    ~C8F7 17.11R NEOCPI41
     ZTs0004  C2022 11 30.24061 03 21 34.94 +07 43 45.2    ~C8F7 17.10R NEOCPI41
     ZTs0004  C2022 11 30.24096 03 21 38.03 +07 43 57.2    ~C8F7 17.10R NEOCPI41
     ZTs0004  C2022 11 30.24108 03 21 39.29 +07 44 01.3    ~C8F7 17.13R NEOCPI41
     ZTs0004  C2022 11 30.24143 03 21 42.62 +07 44 13.4    ~C8F7 17.13R NEOCPI41
     ZTs0004  C2022 11 30.28720003 28 36.597+08 08 21.41   ~C9F7 17.21RUNEOCPI41
     ZTs0004  C2022 11 30.28754703 28 39.577+08 08 31.39   ~C9F7 17.21RUNEOCPI41
     ZTs0004  C2022 11 30.29194003 29 17.607+08 10 43.11   ~C9F7 17.22RUNEOCPI41
     ZTs0004  C2022 11 30.29228703 29 20.632+08 10 53.11   ~C9F7 17.22RUNEOCPI41
     ZTs0004  C2022 11 30.32195303 33 29.907+08 25 01.17   ~C9F7 17.83gUNEOCPI41
     ZTs0004  C2022 11 30.32230003 33 32.667+08 25 10.82   ~C9F7 17.83gUNEOCPI41
     ZTs0004  C2022 12 01.45132904 52 53.690+12 06 18.14   ~CDB7 19.02oVNEOCPT05
     ZTs0004  C2022 12 01.45472104 52 59.582+12 06 33.37   ~CDB7 19.37oVNEOCPT05
     ZTs0004  C2022 12 01.46650204 53 19.742+12 07 23.23   ~CDB7 19.03oVNEOCPT05
     ZTs0004  C2022 12 01.47636304 53 36.674+12 08 04.13   ~CDB7 19.52oVNEOCPT05

Station data:
(I41) Palomar Mountain--ZTF  (N33.357338 W116.859780)  US/California.
   Observers B. T. Bolin, Z. T. F. Collaboration. Measurers B. T. Bolin,
   Z.-Y. Lin, F. J. Masci. 1.2-m f/2.4 Schmidt.
(T05) ATLAS-HKO, Haleakala  (N20.707571 W156.257010)  US/Hawaii.  Observers
   L. Denneau, A. Heinze, H. Weiland, J. Tonry, H. Flewelling, A.
   Fitzsimmons, D. Young, B. Stalder. Measurers L. Denneau, A. Heinze, J.
   Tonry. 0.5-m f/2.0 Schmidt + CCD.

Orbital elements:  ZTs0004
   Perihelion 2022 Oct 25.34404 +/- 0.0255 TT =  8:15:25 (JD 2459877.84404)
Epoch 2022 Dec  1.0 TT = JDT 2459914.5   Earth MOID: 0.0000   Ma: 0.0842
M  13.09152324 +/- 0.08             (J2000 ecliptic)             AutoNEOCP
n   0.35714586 +/- 0.00204          Peri.  131.16826 +/- 0.006
a   1.96745873 +/- 0.00748          Node   246.43213 +/- 0.0009
e   0.5603359 +/- 0.00181           Incl.    3.33397 +/- 0.007
P   2.76                   H 27.71  G  0.15   U  8.6
q 0.86502077 +/- 0.000276    Q 3.06989668 +/- 0.0152
From 16 observations 2022 Nov. 30-Dec. 1 (30.8 hr); mean residual 0".68
Residuals in arcseconds: 
221130 I41  .20+  .77-    221130 I41  .30-  .17-    221201 T05  .28-  .30-    
221130 I41  1.3-  .68-    221130 I41  .80-  .58-    221201 T05  .10+  .25+    
221130 I41  1.7+  .07+    221130 I41  .37-  .29+    221201 T05  1.0-  .00     
221130 I41  1.4-  .35+    221130 I41  .16+  .01+    221201 T05  1.2+  .02-    
221130 I41  .49+  .44+    221130 I41  .92+  .10+    
221130 I41  .95+  .84+    221130 I41  .31-  .18+    

Ephemerides (geocentric):
Date (UTC) HH   RA             Dec           delta  r     elong  mag " sig PA
---- --------  ------------   ------------  ------ ------ -----  --- --------
2022 12 16 05  05 49 41.738   +14 09 44.21  .12214 1.1047 170.1 24.0 8.03  81
2022 12 16 06  05 49 42.515   +14 09 51.32  .12246 1.1051 170.1 24.0 8.04  81
2022 12 16 07  05 49 43.287   +14 09 58.44  .12277 1.1054 170.1 24.0 8.04  81
2022 12 16 08  05 49 44.053   +14 10 05.56  .12309 1.1057 170.1 24.0 8.05  81
2022 12 16 09  05 49 44.814   +14 10 12.68  .12341 1.1060 170.1 24.0 8.05  81
2022 12 16 10  05 49 45.569   +14 10 19.81  .12373 1.1063 170.2 24.0 8.06  81
2022 12 16 11  05 49 46.319   +14 10 26.94  .12405 1.1066 170.2 24.0 8.06  81
2022 12 16 12  05 49 47.064   +14 10 34.08  .12437 1.1070 170.2 24.1 8.07  81
2022 12 16 13  05 49 47.804   +14 10 41.22  .12469 1.1073 170.2 24.1 8.07  81
2022 12 16 14  05 49 48.538   +14 10 48.37  .12501 1.1076 170.2 24.1 8.07  81
2022 12 16 15  05 49 49.268   +14 10 55.52  .12533 1.1079 170.2 24.1 8.08  81
2022 12 16 16  05 49 49.992   +14 11 02.67  .12566 1.1082 170.3 24.1 8.08  81
2022 12 16 17  05 49 50.711   +14 11 09.83  .12598 1.1085 170.3 24.1 8.09  81
2022 12 16 18  05 49 51.426   +14 11 16.99  .12630 1.1089 170.3 24.1 8.09  81
2022 12 16 19  05 49 52.135   +14 11 24.16  .12662 1.1092 170.3 24.1 8.10  81
2022 12 16 20  05 49 52.840   +14 11 31.33  .12694 1.1095 170.3 24.1 8.10  81
2022 12 16 21  05 49 53.540   +14 11 38.51  .12726 1.1098 170.3 24.1 8.10  81
2022 12 16 22  05 49 54.234   +14 11 45.69  .12758 1.1101 170.3 24.1 8.11  81
2022 12 16 23  05 49 54.925   +14 11 52.88  .12790 1.1105 170.3 24.1 8.11  81
2022 12 17 00  05 49 55.610   +14 12 00.07  .12822 1.1108 170.4 24.1 8.12  81
2022 12 17 01  05 49 56.291   +14 12 07.27  .12854 1.1111 170.4 24.1 8.12  81
2022 12 17 02  05 49 56.967   +14 12 14.47  .12887 1.1114 170.4 24.1 8.13  81
2022 12 17 03  05 49 57.639   +14 12 21.68  .12919 1.1117 170.4 24.1 8.13  81
2022 12 17 04  05 49 58.306   +14 12 28.89  .12951 1.1121 170.4 24.1 8.13  81
2022 12 17 05  05 49 58.969   +14 12 36.10  .12983 1.1124 170.4 24.1 8.14  81
2022 12 17 06  05 49 59.627   +14 12 43.32  .13015 1.1127 170.4 24.2 8.14  81
2022 12 17 07  05 50 00.281   +14 12 50.55  .13048 1.1130 170.5 24.2 8.15  81
2022 12 17 08  05 50 00.930   +14 12 57.78  .13080 1.1133 170.5 24.2 8.15  81
2022 12 17 09  05 50 01.576   +14 13 05.02  .13112 1.1137 170.5 24.2 8.15  81
2022 12 17 10  05 50 02.216   +14 13 12.26  .13144 1.1140 170.5 24.2 8.16  81
2022 12 17 11  05 50 02.853   +14 13 19.51  .13177 1.1143 170.5 24.2 8.16  81
2022 12 17 12  05 50 03.486   +14 13 26.76  .13209 1.1146 170.5 24.2 8.17  81
2022 12 17 13  05 50 04.114   +14 13 34.02  .13241 1.1149 170.5 24.2 8.17  81
2022 12 17 14  05 50 04.738   +14 13 41.28  .13273 1.1153 170.5 24.2 8.17  81
2022 12 17 15  05 50 05.358   +14 13 48.55  .13306 1.1156 170.5 24.2 8.18  81
2022 12 17 16  05 50 05.975   +14 13 55.82  .13338 1.1159 170.6 24.2 8.18  81
2022 12 17 17  05 50 06.587   +14 14 03.10  .13370 1.1162 170.6 24.2 8.19  82
2022 12 17 18  05 50 07.195   +14 14 10.39  .13403 1.1165 170.6 24.2 8.19  82
2022 12 17 19  05 50 07.799   +14 14 17.68  .13435 1.1169 170.6 24.2 8.19  82
2022 12 17 20  05 50 08.400   +14 14 24.97  .13467 1.1172 170.6 24.2 8.20  82
2022 12 17 21  05 50 08.996   +14 14 32.27  .13500 1.1175 170.6 24.2 8.20  82
2022 12 17 22  05 50 09.589   +14 14 39.58  .13532 1.1178 170.6 24.2 8.21  82
2022 12 17 23  05 50 10.178   +14 14 46.89  .13565 1.1181 170.6 24.2 8.21  82
2022 12 18 00  05 50 10.763   +14 14 54.21  .13597 1.1185 170.6 24.2 8.21  82
2022 12 18 01  05 50 11.345   +14 15 01.53  .13629 1.1188 170.7 24.3 8.22  82
2022 12 18 02  05 50 11.923   +14 15 08.86  .13662 1.1191 170.7 24.3 8.22  82
2022 12 18 03  05 50 12.497   +14 15 16.20  .13694 1.1194 170.7 24.3 8.23  82
2022 12 18 04  05 50 13.068   +14 15 23.54  .13727 1.1197 170.7 24.3 8.23  82